Voltar ao catálogo

SL-8 R/B

AtivoLEO
NORAD 18121·ROCKET BODY·🇷🇺 Russia

Lançado Jun 16, 1987 de Plesetsk Cosmodrome

Loading…

Próximas Passagens (próximas 24 horas)

TLE

AtualizadoSource: Space-Track

Época: Sep 14, 2026, 23:13 UTC

1 18121U 87051J   26257.96756671  .00000041  00000-0  51058-3 0  9990
2 18121  74.0066  64.6156 0132067   2.6836 167.3430 12.22608620751556

Acompanhe SL-8 R/B em tempo real com AllMySat

Download on the App Store